Tracking 29493 objects as of 8-Sep-2024
HD Live streaming from Space Station
objects crossing your sky now

COSMOS 1867 COOLANT

Track COSMOS 1867 COOLANT now!
10-day predictions


NORAD ID: 39675
Int'l Code: 1987-060AN
Perigee: 773.0 km
Apogee: 802.7 km
Inclination: 65.0 °
Period: 100.5 minutes
Semi major axis: 7158 km
RCS: Unknown
Launch date: July 10, 1987
Source: Commonwealth of Independent States (former USSR) (CIS)
Launch site: TYURATAM MISSILE AND SPACE COMPLEX (TTMTR)

Note: This is SATELLITE DEBRIS
Your satellite tracking list
Your tracking list is empty




NASA's NSSDC Master Catalog

Two Line Element Set (TLE):
1 39675U 87060AN  24251.11427772  .00002418  00000-0  91032-3 0  9999
2 39675  65.0087  29.8583 0020734 265.8949  93.9766 14.33299015543786
Source of the keplerian elements: AFSPC